CZ-6A DEB

Satellite information

Favourite Embed

Satellite Type and Status

DEBRISIN ORBIT

Key statistics

Satellite CZ-6A DEB at a glance.

Uptime

909

Days in orbit

Revolutions

≈ 14.1

Per day

Orbit

SSO

Sun Synchronous Orbit

Inclination

98.8

Latest

Satellite identification and parameters

Extended collection of information and parameters for CZ-6A DEB.

Object identification

Identified? True

Debris? True

Object name: CZ-6A DEB

International designator: 2022-151AFH

Object number (NORAD): 56633

Object ID (CCSDS): 56633

Country: PEOPLES REPUBLIC OF CHINA (PRC)

Current information (Y/N): Y

RCS size: SMALL

Orbital parameters

Period: 102.44 minutes

Inclination: 98.8475 deg

SMA: 7252.248 km

Apoapsis: 930.249 km

Periapsis: 817.978 km

RAAN: 121.4502 deg

Eccentricy: 0.0077404

Argument of periapsis: 76.7824 deg

Mean anomaly: 284.1964 deg

Mean motion: 14.05703593 rev/day

Mean motion (dot): 0.00001766 rev/day2

B* drag term: 0.0010795 1/REarth

Two-line elements (TLE)

Creation date: May 7, 2025, 3:14 a.m.

Reference frame: TEME

Reference center: EARTH

Epoch: May 6, 2025, 6:16 p.m. UTC

TLE line 0: 0 CZ-6A DEB

TLE line 1: 1 56633U 22151AFH 25126.76155261 .00001766 00000-0 10795-2 0 9997

TLE line 2: 2 56633 98.8475 121.4502 0077404 76.7824 284.1964 14.05703593104890

Live tracking on map

Real-time ground track for satellite CZ-6A DEB.

In-orbit conjunctions

A list of the most updated potential collisions computed for object CZ-6A DEB.

Target Orbit TCA Probability of collision Miss distance Type
NOAA 16 DEB SSO 2024-11-11 00:34:50 0.0002629512 256.0 (m) DEBRIS
COSMOS 1375 DEB LEO 2024-11-08 17:09:41 0.0004531412 532.0 (m) DEBRIS

Associated space launch

Chinese satellite reported for atmospheric/ocean/environmental/spatial parameter research purposes, details TBD.

CZ-6A DEB was lifted into orbit during the mission ‘Long March 6A | Yunhai 3’, on board a Long March 6A space rocket.

The launch took place on Nov. 11, 2022, 10:52 p.m. from Launch Complex 9A.

For more information about the launch, click the button.

Launch to space Long March 6A | Yunhai 3
Long March 6A | Yunhai 3

Agency: N/A

Status: Launch Successful

Launch date: Nov. 11, 2022, 10:52 p.m. UTC

Rocket: Long March 6A

Launch pad: Launch Complex 9A

Location: Taiyuan Satellite Launch Center, People's Republic of China

...

Latest news about this satellite

There are no fresh news available about this satellite. Check back as we update our databases every day.


Newsletter sign-up

Weekly statistics, charts and insights to help you stay on top of the space industry.